ATLAS CENTAUR 2 DEB, 701

Orbit data source: Space-Track

ATLAS CENTAUR 2 DEB, 701 is space debris in LEO originally from a launch on Wed, 27 Nov 1963 UTC launched from the Air Force Eastern Test Range (AFETR). Debris objects in space refer to the collection of defunct objects orbiting the Earth. Examples of debris include non-operational satellites, rocket bodies, and fragments generated from explosions, collisions, or faulty payload assembly.

Loading next visibility...
ATLAS CENTAUR 2 DEB details
Identifier
701, 1963-047G
Orbit
LEO
Last TLE update11 hours ago
Origin
Flag of USNASA LeRC (US)
ManufacturerGD/Convair
MissionSpacecraft
Bus & MotorCENTAUR PART, Unknown motor
MassUnknown
Launch date (UTC)
1963-11-27 (61 years ago)
Launch vehicleUnknown
Launch site
Air Force Eastern Test Range (AFETR)
Object type
Payload
Rocket body
Debris
Shape & HBRUnknown
Radar Cross Section0.560 m², Medium (>0.1 m² and < 1m²)

Expand to show TLE details & history

TLE from 11 hours ago
0 ATLAS CENTAUR 2 DEB
1 00701U 63047G   24356.78226373  .00001196  00000-0  37929-3 0  9996
2 00701  30.0101 115.9194 0512321   6.0856 354.5672 13.81351531 35106
Epoch: 2024-12-21T18:46Z
Definitive object data (Epoch: 2024-12-21T18:46:27.586Z)
Latitude-0.00002°
Longitude103.47594°
Altitude583.663 km
Speed7.761 km/s
True Right ascension07h 43m 40s
True Declination0° 00' 00"
Sunlit
Object was in full shadow at TLE epoch
Visualization TLE readout
Latitude4.48029°
Longitude-86.76987°
Altitude1,310.237 km
Speed7.029 km/s
Apparent Right ascension18h 16m 47s
Apparent Declination-15° 56' 01"
Sunlit
Object is in daylight
Visualization observer readout
Local Sidereal Time05:04:13
Azimuth321.458° NNW
Elevation-61.284°
Doppler factor1
Orbital elements
Apogee altitude1,338.963 km
Perigee altitude586.773 km
Semi-major axis7,341.005 km
Eccentricity0.0512321
Inclination30.0101°
RAAN115.9194°
Arg. of periapsis6.0856°
True anomaly353.97364°
Mean anomaly354.5672°
Eccentric anomaly354.27435°
Mean motion3.45072 °/min
BSTAR0.00037929
Orbital period104.33 mins
Loading maneuver chart data...

ATLAS CENTAUR 2 DEB Visibility forecast

Observer location: undefined°, undefined

Span
Click to sort rows by Start time (UTC) header in descending order
Start Az.
Max El. time (UTC)
Max El. Az.
Max El.
End time (UTC)
End Az.
6 mins2024-12-22 12:22:32.655Z200.288° SSW2024-12-22 12:25:32.655Z158.063° S18.539°2024-12-22 12:28:32.655Z121.499° SE
8 mins2024-12-22 14:12:32.655Z220.944° SW2024-12-22 14:15:32.655Z171.106° S27.193°2024-12-22 14:20:32.655Z117.862° SE
8 mins2024-12-22 16:02:32.655Z231.083° WSW2024-12-22 16:05:32.655Z191.184° SSW24.898°2024-12-22 16:10:32.655Z140.241° SSE
6 mins2024-12-22 17:53:32.655Z225.291° WSW2024-12-22 17:55:32.655Z207.161° SW14.764°2024-12-22 17:59:32.655Z174.222° S
|